Millbury, Ohio, United States (43447)
Lat: 41.57N, Lon: 83.42W
Wx Zone: OHZ006
Local Info
Past Weather Observations for Today

NOTE: This archive is for the closest National Weather Service station to Millbury. Information may differ from the station used for current weather conditions.

Click here for Long-term Archive

Time Weather Temperature Dewpoint Humidity Pressure Winds Precip Visibility
17:53
Clear
73°F / 23°C 55°F / 13°C 53% 29.92 in
(1013 mb)
NW 8.1 mph
(NW 13 kph)
- 10SM
16:53
Partly Cloudy
75°F / 24°C 55°F / 13°C 50% 29.92 in
(1013 mb)
SSW 5.8 mph
(SSW 9 kph)
- 10SM
15:53
Partly Cloudy
73°F / 23°C 55°F / 13°C 53% 29.92 in
(1013 mb)
SSW 9.2 mph
(SSW 15 kph)
- 10SM
14:53
Mostly Cloudy
73°F / 23°C 55°F / 13°C 53% 29.92 in
(1013 mb)
NW 9.2 mph
(NW 15 kph)
- 10SM
13:53
Partly Cloudy
73°F / 23°C 57°F / 14°C 57% 29.92 in
(1013 mb)
Variable 4.6 mph
(Variable 7 kph)
- 10SM
12:53
Mostly Cloudy
73°F / 23°C 57°F / 14°C 57% 29.92 in
(1013 mb)
W 9.2 mph
(W 15 kph)
- 10SM
11:53
Overcast
72°F / 22°C 59°F / 15°C 65% 29.95 in
(1014 mb)
W 11.5 mph
(W 19 kph)
- 10SM
11:06
Mostly Cloudy
70°F / 21°C 57°F / 14°C 64% 29.92 in
(1013 mb)
NW 6.9 mph
(NW 11 kph)
- 10SM
10:53
Overcast
70°F / 21°C 57°F / 14°C 64% 29.92 in
(1013 mb)
W 10.4 mph
(W 17 kph)
- 10SM
10:09
Partly Cloudy
70°F / 21°C 59°F / 15°C 69% 29.92 in
(1013 mb)
W 9.2 mph
(W 15 kph)
- 10SM
09:53
Mostly Cloudy
70°F / 21°C 59°F / 15°C 69% 29.92 in
(1013 mb)
W 9.2 mph
(W 15 kph)
- 10SM
08:53
Overcast
66°F / 19°C 59°F / 15°C 78% 29.92 in
(1013 mb)
WNW 11.5 mph
(WNW 19 kph)
- 10SM
07:53
Overcast
64°F / 18°C 61°F / 16°C 88% 29.89 in
(1012 mb)
WNW 10.4 mph
(WNW 17 kph)
- 10SM
07:50
Overcast
64°F / 18°C 61°F / 16°C 88% 29.89 in
(1012 mb)
W 9.2 mph
(W 15 kph)
- 10SM
06:53
Overcast
64°F / 18°C 61°F / 16°C 88% 29.89 in
(1012 mb)
SSW 6.9 mph
(SSW 11 kph)
- 8SM
06:18
Mostly Cloudy
Fog And Mist
63°F / 17°C 59°F / 15°C 88% 29.89 in
(1012 mb)
SSW 6.9 mph
(SSW 11 kph)
- 6SM
06:04
Partly Cloudy
Fog And Mist
63°F / 17°C 59°F / 15°C 88% 29.89 in
(1012 mb)
SSW 6.9 mph
(SSW 11 kph)
- 6SM
05:53
Mostly Cloudy
Fog And Mist
63°F / 17°C 59°F / 15°C 88% 29.89 in
(1012 mb)
SSW 8.1 mph
(SSW 13 kph)
- 6SM
04:53
Overcast
63°F / 17°C 59°F / 15°C 88% 29.86 in
(1011 mb)
SSW 6.9 mph
(SSW 11 kph)
- 8SM
04:39
Mostly Cloudy
63°F / 17°C 59°F / 15°C 88% 29.86 in
(1011 mb)
SSW 5.8 mph
(SSW 9 kph)
- 8SM
04:12
Overcast
63°F / 17°C 59°F / 15°C 88% 29.83 in
(1010 mb)
SSW 5.8 mph
(SSW 9 kph)
- 9SM
03:53
Overcast
63°F / 17°C 59°F / 15°C 88% 29.83 in
(1010 mb)
SSW 5.8 mph
(SSW 9 kph)
- 8SM
03:09
Mostly Cloudy
63°F / 17°C 57°F / 14°C 83% 29.83 in
(1010 mb)
SSW 6.9 mph
(SSW 11 kph)
- 8SM
02:53
Partly Cloudy
61°F / 16°C 57°F / 14°C 88% 29.83 in
(1010 mb)
SSW 6.9 mph
(SSW 11 kph)
- 9SM
01:53
Clear
63°F / 17°C 59°F / 15°C 88% 29.83 in
(1010 mb)
SSW 8.1 mph
(SSW 13 kph)
- 10SM
00:53
Clear
63°F / 17°C 59°F / 15°C 88% 29.8 in
(1009 mb)
SSW 6.9 mph
(SSW 11 kph)
- 9SM
Time Weather Temperature Dewpoint Humidity Pressure Winds Precip Visibility


Weather for websites

WeatherForYou.com, LLC is not responsible for any damages or problems caused by this service. Current weather conditions are obtained from the closest station including government and personal stations which may have varying degrees of accuracy. Weather forecasts are derived from the NOAA NDFD. Like all things, this site belongs to Jesus Christ... He just trusts us to maintain it. If you have any questions or comments email webmaster@weatherforyou.com

Copyright © 2015, WeatherForYou.com LLC. All rights reserved.